Time,TemperatureF,DewpointF,PressureIn,WindDirection,WindDirectionDegrees,WindSpeedMPH,WindSpeedGustMPH,Humidity,HourlyPrecipIn,Conditions,Clouds,dailyrainin,SoftwareType,DateUTC
2013-03-04 00:01:00,22.0,19.0,-100.00,ESE,115,5.0,10.0,85,-99.99,,,-99.99,,2013-03-04 05:01:00,
2013-03-04 00:11:00,22.0,19.0,-100.00,ESE,118,5.0,10.0,85,-99.99,,,-99.99,,2013-03-04 05:11:00,
2013-03-04 00:22:00,22.0,18.0,-100.00,East,91,5.0,10.0,85,-99.99,,,-99.99,,2013-03-04 05:22:00,
2013-03-04 00:32:00,22.0,18.0,-100.00,East,91,5.0,10.0,85,-99.99,,,-99.99,,2013-03-04 05:32:00,
2013-03-04 00:42:00,22.0,18.0,-100.00,SSE,147,5.0,11.0,85,-99.99,,,-99.99,,2013-03-04 05:42:00,
2013-03-04 00:52:00,22.0,18.0,-100.00,East,89,4.0,13.0,85,-99.99,,,-99.99,,2013-03-04 05:52:00,
2013-03-04 01:02:00,22.0,18.0,-100.00,ESE,106,5.0,13.0,84,-99.99,,,-99.99,,2013-03-04 06:02:00,
2013-03-04 01:11:00,22.0,18.0,-100.00,ESE,109,4.0,10.0,84,-99.99,,,-99.99,,2013-03-04 06:11:00,
2013-03-04 01:22:00,22.0,18.0,-100.00,ESE,119,5.0,11.0,84,-99.99,,,-99.99,,2013-03-04 06:22:00,
2013-03-04 01:32:00,22.0,18.0,-100.00,NE,54,5.0,11.0,85,-99.99,,,-99.99,,2013-03-04 06:32:00,
2013-03-04 01:42:00,22.0,18.0,-100.00,SE,146,5.0,8.0,84,-99.99,,,-99.99,,2013-03-04 06:42:00,
2013-03-04 01:51:00,22.0,18.0,-100.00,East,81,3.0,6.0,85,-99.99,,,-99.99,,2013-03-04 06:51:00,
2013-03-04 02:02:00,22.0,18.0,-100.00,ENE,75,4.0,10.0,84,-99.99,,,-99.99,,2013-03-04 07:02:00,
2013-03-04 02:11:00,22.0,18.0,-100.00,ENE,75,4.0,10.0,84,-99.99,,,-99.99,,2013-03-04 07:11:00,
2013-03-04 02:21:00,22.0,18.0,-100.00,ESE,117,4.0,11.0,85,-99.99,,,-99.99,,2013-03-04 07:21:00,
2013-03-04 02:32:00,22.0,18.0,-100.00,ENE,61,5.0,10.0,85,-99.99,,,-99.99,,2013-03-04 07:32:00,
2013-03-04 02:42:00,22.0,18.0,-100.00,ESE,116,3.0,8.0,85,-99.99,,,-99.99,,2013-03-04 07:42:00,
2013-03-04 02:52:00,22.0,18.0,-100.00,ESE,112,4.0,8.0,85,-99.99,,,-99.99,,2013-03-04 07:52:00,
2013-03-04 03:02:00,22.0,18.0,-100.00,ESE,112,4.0,8.0,85,-99.99,,,-99.99,,2013-03-04 08:02:00,
2013-03-04 03:12:00,22.0,18.0,-100.00,East,94,6.0,15.0,85,-99.99,,,-99.99,,2013-03-04 08:12:00,
2013-03-04 03:22:00,22.0,18.0,-100.00,East,94,6.0,15.0,85,-99.99,,,-99.99,,2013-03-04 08:22:00,
2013-03-04 03:32:00,22.0,18.0,-100.00,NE,35,6.0,11.0,85,-99.99,,,-99.99,,2013-03-04 08:32:00,
2013-03-04 03:42:00,22.0,18.0,-100.00,NE,35,6.0,11.0,85,-99.99,,,-99.99,,2013-03-04 08:42:00,
2013-03-04 03:52:00,22.0,18.0,-100.00,SSW,196,4.0,10.0,86,-99.99,,,-99.99,,2013-03-04 08:52:00,
2013-03-04 04:02:00,22.0,18.0,-100.00,SSW,196,4.0,10.0,86,-99.99,,,-99.99,,2013-03-04 09:02:00,
2013-03-04 04:11:00,22.0,18.0,-100.00,ESE,112,5.0,15.0,86,-99.99,,,-99.99,,2013-03-04 09:11:00,
2013-03-04 04:22:00,22.0,18.0,-100.00,ESE,112,5.0,15.0,86,-99.99,,,-99.99,,2013-03-04 09:22:00,
2013-03-04 04:32:00,21.0,18.0,-100.00,East,98,4.0,11.0,86,-99.99,,,-99.99,,2013-03-04 09:32:00,
2013-03-04 04:42:00,21.0,18.0,-100.00,South,175,6.0,15.0,86,-99.99,,,-99.99,,2013-03-04 09:42:00,
2013-03-04 04:52:00,21.0,18.0,-100.00,ESE,115,5.0,15.0,86,-99.99,,,-99.99,,2013-03-04 09:52:00,
2013-03-04 05:01:00,21.0,18.0,-100.00,NNE,28,8.0,13.0,85,-99.99,,,-99.99,,2013-03-04 10:01:00,
2013-03-04 05:12:00,21.0,18.0,-100.00,SSE,153,5.0,11.0,86,-99.99,,,-99.99,,2013-03-04 10:12:00,
2013-03-04 05:22:00,21.0,18.0,-100.00,NNE,30,6.0,11.0,86,-99.99,,,-99.99,,2013-03-04 10:22:00,
2013-03-04 05:32:00,21.0,18.0,-100.00,ENE,59,6.0,11.0,86,-99.99,,,-99.99,,2013-03-04 10:32:00,
2013-03-04 05:42:00,21.0,18.0,-100.00,ENE,59,6.0,11.0,86,-99.99,,,-99.99,,2013-03-04 10:42:00,
2013-03-04 05:52:00,21.0,18.0,-100.00,South,191,4.0,10.0,86,-99.99,,,-99.99,,2013-03-04 10:52:00,
2013-03-04 06:02:00,21.0,18.0,-100.00,SSE,167,5.0,11.0,86,-99.99,,,-99.99,,2013-03-04 11:02:00,
2013-03-04 06:11:00,21.0,18.0,-100.00,NE,39,6.0,13.0,86,-99.99,,,-99.99,,2013-03-04 11:11:00,
2013-03-04 06:22:00,21.0,18.0,-100.00,East,80,5.0,11.0,86,-99.99,,,-99.99,,2013-03-04 11:22:00,
2013-03-04 06:32:00,21.0,18.0,-100.00,ESE,110,5.0,11.0,86,-99.99,,,-99.99,,2013-03-04 11:32:00,
2013-03-04 06:42:00,21.0,18.0,-100.00,ENE,70,4.0,11.0,85,-99.99,,,-99.99,,2013-03-04 11:42:00,
2013-03-04 06:52:00,21.0,17.0,-100.00,NNE,17,7.0,17.0,85,-99.99,,,-99.99,,2013-03-04 11:52:00,
2013-03-04 07:02:00,21.0,17.0,-100.00,East,97,5.0,10.0,85,-99.99,,,-99.99,,2013-03-04 12:02:00,
2013-03-04 07:11:00,21.0,18.0,-100.00,NE,48,4.0,10.0,85,-99.99,,,-99.99,,2013-03-04 12:11:00,
2013-03-04 07:22:00,21.0,18.0,-100.00,NE,48,4.0,10.0,85,-99.99,,,-99.99,,2013-03-04 12:22:00,
2013-03-04 07:32:00,21.0,18.0,-100.00,SE,126,4.0,10.0,85,-99.99,,,-99.99,,2013-03-04 12:32:00,
2013-03-04 07:42:00,21.0,18.0,-100.00,East,95,4.0,10.0,84,-99.99,,,-99.99,,2013-03-04 12:42:00,
2013-03-04 07:52:00,21.0,18.0,-100.00,East,95,4.0,10.0,84,-99.99,,,-99.99,,2013-03-04 12:52:00,
2013-03-04 08:02:00,21.0,17.0,-100.00,South,170,5.0,15.0,84,-99.99,,,-99.99,,2013-03-04 13:02:00,
2013-03-04 08:11:00,21.0,17.0,-100.00,ESE,114,7.0,11.0,84,-99.99,,,-99.99,,2013-03-04 13:11:00,
2013-03-04 08:21:00,21.0,18.0,-100.00,East,81,5.0,13.0,84,-99.99,,,-99.99,,2013-03-04 13:21:00,
2013-03-04 08:32:00,22.0,18.0,-100.00,NE,54,3.0,10.0,84,-99.99,,,-99.99,,2013-03-04 13:32:00,
2013-03-04 08:42:00,22.0,18.0,-100.00,NE,54,3.0,10.0,84,-99.99,,,-99.99,,2013-03-04 13:42:00,
2013-03-04 08:52:00,22.0,18.0,-100.00,ESE,104,6.0,11.0,84,-99.99,,,-99.99,,2013-03-04 13:52:00,
2013-03-04 09:01:00,22.0,18.0,-100.00,East,97,6.0,15.0,84,-99.99,,,-99.99,,2013-03-04 14:01:00,
2013-03-04 09:12:00,22.0,18.0,-100.00,South,175,4.0,10.0,84,-99.99,,,-99.99,,2013-03-04 14:12:00,
2013-03-04 09:22:00,22.0,17.0,-100.00,ENE,63,5.0,13.0,83,-99.99,,,-99.99,,2013-03-04 14:22:00,
2013-03-04 09:32:00,21.0,17.0,-100.00,SSE,156,7.0,17.0,83,-99.99,,,-99.99,,2013-03-04 14:32:00,
2013-03-04 09:42:00,21.0,17.0,-100.00,East,101,5.0,17.0,81,-99.99,,,-99.99,,2013-03-04 14:42:00,
2013-03-04 09:52:00,22.0,17.0,-100.00,ENE,73,7.0,17.0,80,-99.99,,,-99.99,,2013-03-04 14:52:00,
2013-03-04 10:02:00,22.0,17.0,-100.00,ESE,119,4.0,11.0,79,-99.99,,,-99.99,,2013-03-04 15:02:00,
2013-03-04 10:11:00,23.0,17.0,-100.00,SSW,210,6.0,17.0,77,-99.99,,,-99.99,,2013-03-04 15:11:00,
2013-03-04 10:22:00,23.0,17.0,-100.00,East,87,5.0,13.0,75,-99.99,,,-99.99,,2013-03-04 15:22:00,
2013-03-04 10:32:00,23.0,17.0,-100.00,SE,127,6.0,15.0,76,-99.99,,,-99.99,,2013-03-04 15:32:00,
2013-03-04 10:42:00,23.0,17.0,-100.00,ENE,77,6.0,11.0,76,-99.99,,,-99.99,,2013-03-04 15:42:00,
2013-03-04 10:52:00,23.0,17.0,-100.00,ENE,77,6.0,11.0,76,-99.99,,,-99.99,,2013-03-04 15:52:00,
2013-03-04 11:03:00,23.0,17.0,-100.00,ENE,77,6.0,11.0,76,-99.99,,,-99.99,,2013-03-04 16:03:00,
2013-03-04 11:11:00,24.0,17.0,-100.00,ESE,119,6.0,17.0,74,-99.99,,,-99.99,,2013-03-04 16:11:00,
2013-03-04 11:21:00,24.0,17.0,-100.00,NNE,19,6.0,15.0,73,-99.99,,,-99.99,,2013-03-04 16:21:00,
2013-03-04 11:32:00,25.0,17.0,-100.00,East,96,8.0,17.0,72,-99.99,,,-99.99,,2013-03-04 16:32:00,
2013-03-04 11:42:00,25.0,17.0,-100.00,ESE,113,7.0,17.0,70,-99.99,,,-99.99,,2013-03-04 16:42:00,
2013-03-04 11:52:00,25.0,17.0,-100.00,WSW,246,5.0,13.0,71,-99.99,,,-99.99,,2013-03-04 16:52:00,
2013-03-04 12:02:00,25.0,17.0,-100.00,East,96,6.0,13.0,71,-99.99,,,-99.99,,2013-03-04 17:02:00,
2013-03-04 12:11:00,25.0,17.0,-100.00,ESE,117,7.0,13.0,71,-99.99,,,-99.99,,2013-03-04 17:11:00,
2013-03-04 12:22:00,25.0,17.0,-100.00,ESE,117,7.0,13.0,71,-99.99,,,-99.99,,2013-03-04 17:22:00,
2013-03-04 12:32:00,24.0,17.0,-100.00,SSE,147,8.0,13.0,72,-99.99,,,-99.99,,2013-03-04 17:32:00,
2013-03-04 12:42:00,25.0,18.0,-100.00,ENE,64,4.0,10.0,76,-99.99,,,-99.99,,2013-03-04 17:42:00,
2013-03-04 12:52:00,24.0,18.0,-100.00,East,80,6.0,13.0,75,-99.99,,,-99.99,,2013-03-04 17:52:00,
2013-03-04 13:02:00,25.0,18.0,-100.00,SSE,149,4.0,11.0,74,-99.99,,,-99.99,,2013-03-04 18:02:00,
2013-03-04 13:11:00,25.0,18.0,-100.00,ENE,58,6.0,13.0,73,-99.99,,,-99.99,,2013-03-04 18:11:00,
2013-03-04 13:22:00,25.0,18.0,-100.00,NE,44,7.0,15.0,73,-99.99,,,-99.99,,2013-03-04 18:22:00,
2013-03-04 13:32:00,25.0,18.0,-100.00,SW,216,5.0,11.0,75,-99.99,,,-99.99,,2013-03-04 18:32:00,
2013-03-04 13:42:00,25.0,18.0,-100.00,SW,216,5.0,11.0,75,-99.99,,,-99.99,,2013-03-04 18:42:00,
2013-03-04 13:52:00,25.0,17.0,-100.00,ESE,106,6.0,13.0,72,-99.99,,,-99.99,,2013-03-04 18:52:00,
2013-03-04 14:02:00,25.0,17.0,-100.00,ESE,106,6.0,13.0,72,-99.99,,,-99.99,,2013-03-04 19:02:00,
2013-03-04 14:12:00,25.0,17.0,-100.00,East,101,4.0,11.0,73,-99.99,,,-99.99,,2013-03-04 19:12:00,
2013-03-04 14:22:00,24.0,17.0,-100.00,East,83,7.0,13.0,74,-99.99,,,-99.99,,2013-03-04 19:22:00,
2013-03-04 14:32:00,24.0,17.0,-100.00,ESE,120,6.0,11.0,75,-99.99,,,-99.99,,2013-03-04 19:32:00,
2013-03-04 14:42:00,24.0,17.0,-100.00,ESE,104,5.0,11.0,75,-99.99,,,-99.99,,2013-03-04 19:42:00,
2013-03-04 14:52:00,24.0,17.0,-100.00,NE,48,6.0,11.0,74,-99.99,,,-99.99,,2013-03-04 19:52:00,
2013-03-04 15:02:00,24.0,17.0,-100.00,ENE,58,6.0,11.0,73,-99.99,,,-99.99,,2013-03-04 20:02:00,
2013-03-04 15:12:00,24.0,17.0,-100.00,East,94,5.0,13.0,72,-99.99,,,-99.99,,2013-03-04 20:12:00,
2013-03-04 15:22:00,24.0,16.0,-100.00,SE,131,6.0,13.0,71,-99.99,,,-99.99,,2013-03-04 20:22:00,
2013-03-04 15:32:00,24.0,17.0,-100.00,NE,46,7.0,15.0,75,-99.99,,,-99.99,,2013-03-04 20:32:00,
2013-03-04 15:42:00,23.0,17.0,-100.00,ESE,119,6.0,11.0,77,-99.99,,,-99.99,,2013-03-04 20:42:00,
2013-03-04 15:52:00,23.0,17.0,-100.00,ESE,119,6.0,11.0,77,-99.99,,,-99.99,,2013-03-04 20:52:00,
2013-03-04 16:02:00,23.0,18.0,-100.00,SSE,151,7.0,15.0,78,-99.99,,,-99.99,,2013-03-04 21:02:00,
2013-03-04 16:12:00,23.0,18.0,-100.00,North,0,7.0,15.0,80,-99.99,,,-99.99,,2013-03-04 21:12:00,
2013-03-04 16:22:00,23.0,18.0,-100.00,North,10,6.0,11.0,81,-99.99,,,-99.99,,2013-03-04 21:22:00,
2013-03-04 16:32:00,23.0,18.0,-100.00,SSE,159,6.0,13.0,80,-99.99,,,-99.99,,2013-03-04 21:32:00,
2013-03-04 16:42:00,23.0,18.0,-100.00,SSE,159,6.0,13.0,80,-99.99,,,-99.99,,2013-03-04 21:42:00,
2013-03-04 16:52:00,23.0,19.0,-100.00,North,9,5.0,11.0,84,-99.99,,,-99.99,,2013-03-04 21:52:00,
2013-03-04 17:02:00,23.0,18.0,-100.00,ENE,73,4.0,11.0,83,-99.99,,,-99.99,,2013-03-04 22:02:00,
2013-03-04 17:12:00,23.0,18.0,-100.00,ENE,73,4.0,11.0,83,-99.99,,,-99.99,,2013-03-04 22:12:00,
2013-03-04 17:22:00,23.0,18.0,-100.00,SE,126,6.0,13.0,81,-99.99,,,-99.99,,2013-03-04 22:22:00,
2013-03-04 17:32:00,23.0,17.0,-100.00,ESE,121,4.0,10.0,80,-99.99,,,-99.99,,2013-03-04 22:32:00,
2013-03-04 17:42:00,22.0,18.0,-100.00,SSW,195,9.0,17.0,84,-99.99,,,-99.99,,2013-03-04 22:42:00,
2013-03-04 17:52:00,21.0,19.0,-100.00,ENE,77,6.0,11.0,89,-99.99,,,-99.99,,2013-03-04 22:52:00,
2013-03-04 18:02:00,21.0,19.0,-100.00,ENE,77,6.0,11.0,89,-99.99,,,-99.99,,2013-03-04 23:02:00,
2013-03-04 18:11:00,21.0,19.0,-100.00,ESE,120,5.0,10.0,90,-99.99,,,-99.99,,2013-03-04 23:11:00,
2013-03-04 18:22:00,21.0,19.0,-100.00,ESE,120,5.0,10.0,90,-99.99,,,-99.99,,2013-03-04 23:22:00,
2013-03-04 18:32:00,21.0,18.0,-100.00,ENE,74,6.0,13.0,90,-99.99,,,-99.99,,2013-03-04 23:32:00,
2013-03-04 18:42:00,21.0,18.0,-100.00,ESE,105,5.0,10.0,89,-99.99,,,-99.99,,2013-03-04 23:42:00,
2013-03-04 18:52:00,21.0,18.0,-100.00,SE,136,4.0,8.0,88,-99.99,,,-99.99,,2013-03-04 23:52:00,
2013-03-04 19:02:00,21.0,18.0,-100.00,SE,136,4.0,8.0,88,-99.99,,,-99.99,,2013-03-05 00:02:00,
2013-03-04 19:12:00,21.0,18.0,-100.00,SE,136,4.0,8.0,88,-99.99,,,-99.99,,2013-03-05 00:12:00,
2013-03-04 19:22:00,21.0,17.0,-100.00,South,184,5.0,11.0,87,-99.99,,,-99.99,,2013-03-05 00:22:00,
2013-03-04 19:32:00,21.0,18.0,-100.00,North,2,3.0,10.0,87,-99.99,,,-99.99,,2013-03-05 00:32:00,
2013-03-04 19:42:00,21.0,18.0,-100.00,North,4,4.0,8.0,87,-99.99,,,-99.99,,2013-03-05 00:42:00,
2013-03-04 19:52:00,21.0,18.0,-100.00,SE,146,5.0,13.0,87,-99.99,,,-99.99,,2013-03-05 00:52:00,
2013-03-04 20:02:00,21.0,18.0,-100.00,ENE,64,5.0,11.0,86,-99.99,,,-99.99,,2013-03-05 01:02:00,
2013-03-04 20:12:00,21.0,18.0,-100.00,ENE,59,3.0,8.0,87,-99.99,,,-99.99,,2013-03-05 01:12:00,
2013-03-04 20:22:00,21.0,18.0,-100.00,North,2,3.0,6.0,87,-99.99,,,-99.99,,2013-03-05 01:22:00,
2013-03-04 20:32:00,21.0,18.0,-100.00,North,0,4.0,8.0,87,-99.99,,,-99.99,,2013-03-05 01:32:00,
2013-03-04 20:42:00,21.0,18.0,-100.00,North,0,4.0,8.0,87,-99.99,,,-99.99,,2013-03-05 01:42:00,
2013-03-04 20:52:00,21.0,18.0,-100.00,North,0,5.0,8.0,86,-99.99,,,-99.99,,2013-03-05 01:52:00,
2013-03-04 21:02:00,21.0,18.0,-100.00,East,94,4.0,8.0,87,-99.99,,,-99.99,,2013-03-05 02:02:00,
2013-03-04 21:12:00,21.0,18.0,-100.00,ENE,68,5.0,11.0,87,-99.99,,,-99.99,,2013-03-05 02:12:00,
2013-03-04 21:22:00,21.0,18.0,-100.00,SE,130,4.0,8.0,87,-99.99,,,-99.99,,2013-03-05 02:22:00,
2013-03-04 21:32:00,21.0,18.0,-100.00,SE,130,4.0,8.0,87,-99.99,,,-99.99,,2013-03-05 02:32:00,
2013-03-04 21:42:00,21.0,18.0,-100.00,East,90,3.0,8.0,86,-99.99,,,-99.99,,2013-03-05 02:42:00,
2013-03-04 21:52:00,21.0,18.0,-100.00,NE,54,2.0,4.0,87,-99.99,,,-99.99,,2013-03-05 02:52:00,
2013-03-04 22:02:00,21.0,18.0,-100.00,NNE,20,2.0,4.0,88,-99.99,,,-99.99,,2013-03-05 03:02:00,
2013-03-04 22:12:00,21.0,18.0,-100.00,NNE,31,2.0,4.0,87,-99.99,,,-99.99,,2013-03-05 03:12:00,
2013-03-04 22:22:00,21.0,18.0,-100.00,North,4,3.0,6.0,86,-99.99,,,-99.99,,2013-03-05 03:22:00,
2013-03-04 22:32:00,21.0,18.0,-100.00,NNE,14,2.0,4.0,86,-99.99,,,-99.99,,2013-03-05 03:32:00,
2013-03-04 22:42:00,21.0,18.0,-100.00,NNE,14,2.0,4.0,86,-99.99,,,-99.99,,2013-03-05 03:42:00,
2013-03-04 22:52:00,21.0,18.0,-100.00,South,170,3.0,6.0,86,-99.99,,,-99.99,,2013-03-05 03:52:00,
2013-03-04 23:02:00,21.0,18.0,-100.00,South,170,3.0,6.0,86,-99.99,,,-99.99,,2013-03-05 04:02:00,
2013-03-04 23:12:00,21.0,19.0,-100.00,ENE,64,3.0,8.0,89,-99.99,,,-99.99,,2013-03-05 04:12:00,
2013-03-04 23:22:00,21.0,19.0,-100.00,ENE,64,3.0,8.0,89,-99.99,,,-99.99,,2013-03-05 04:22:00,
2013-03-04 23:32:00,21.0,19.0,-100.00,South,181,3.0,6.0,90,-99.99,,,-99.99,,2013-03-05 04:32:00,
2013-03-04 23:42:00,21.0,19.0,-100.00,WNW,294,3.0,6.0,90,-99.99,,,-99.99,,2013-03-05 04:42:00,
2013-03-04 23:52:00,21.0,19.0,-100.00,North,5,2.0,6.0,90,-99.99,,,-99.99,,2013-03-05 04:52:00,